Temperature
6 6 5 5 5 5 5 5 5 4 4 4 5 5 5 5 5 5 5 5 5 5 5 5 5 5 5 4 4 4 4 4 4 4 4 4 4 5 5 5 5 5 6
6 5 5 5 5 5 4 4 4 4 4 4 4 4 4 4 4 4 4 4 4 4 4 4 4 4 4 4 4 3 3 3 3 3 3 3 4 4 4 4 4 4 4
5 5 5 5 5 4 4 4 4 4 4 3 4 4 4 4 4 4 4 4 3 3 3 3 3 3 3 3 3 3 3 3 3 2 2 3 3 3 3 3 3 3 3
5 5 5 5 4 4 4 4 4 3 3 3 3 3 3 3 3 3 3 3 3 3 3 2 2 2 2 2 2 2 2 2 1 1 1 1 2 2 2 2 2 2 2
5 5 5 4 4 4 4 3 3 3 3 3 3 3 3 3 2 2 2 2 2 2 2 2 1 1 1 1 1 1 1 0 0 0 0 0 0 0 0 0 1 1 1
5 5 5 4 4 4 4 3 3 3 3 3 2 2 2 2 2 2 1 1 1 1 1 1 1 1 1 0 0 0 -0 -0 -0 -1 -1 -1 -1 -1 -1 -1 -1 -1 -1
5 5 4 4 4 3 3 3 3 3 2 2 2 2 2 1 1 1 1 1 0 0 -0 -0 -0 -0 -1 -1 -1 -1 -1 -1 -1 -1 -2 -2 -2 -2 -2 -2 -2 -2 -2
5 5 4 4 4 3 3 3 2 2 2 2 2 1 1 1 1 0 0 -0 -0 -1 -1 -1 -1 -1 -2 -2 -2 -2 -2 -2 -2 -2 -2 -2 -2 -2 -2 -3 -3 -3 -2
5 4 4 4 3 3 3 2 2 2 2 1 1 1 1 0 0 -0 -1 -1 -1 -1 -2 -2 -2 -2 -2 -3 -3 -3 -3 -3 -2 -2 -3 -3 -3 -3 -3 -3 -3 -4 -4
4 4 4 3 3 3 2 2 2 1 1 1 1 0 0 -0 -0 -1 -1 -2 -2 -2 -2 -3 -3 -3 -3 -3 -4 -4 -3 -3 -3 -3 -3 -3 -3 -4 -4 -4 -4 -5 -5
4 4 4 3 3 2 2 2 1 1 1 1 0 -0 -0 -1 -1 -1 -2 -2 -3 -3 -3 -3 -3 -3 -4 -4 -4 -4 -4 -4 -4 -4 -4 -4 -4 -4 -5 -5 -5 -5 -5
4 3 3 3 3 2 2 1 1 1 0 0 -0 -1 -1 -1 -2 -2 -3 -3 -3 -4 -4 -4 -4 -4 -4 -4 -4 -4 -4 -4 -5 -5 -5 -5 -5 -5 -5 -5 -5 -6 -6
3 3 3 2 2 2 1 1 0 0 -0 -1 -1 -1 -2 -2 -2 -3 -3 -3 -4 -4 -4 -5 -5 -5 -5 -5 -5 -5 -5 -5 -5 -6 -6 -6 -6 -6 -6 -6 -6 -6 -6
3 3 2 2 2 1 1 0 -0 -0 -1 -1 -1 -2 -2 -2 -3 -3 -4 -4 -4 -5 -5 -5 -5 -5 -5 -5 -5 -5 -5 -6 -6 -6 -7 -7 -7 -7 -7 -7 -7 -7 -6
2 2 2 2 1 1 0 -0 -0 -1 -1 -1 -2 -2 -2 -3 -3 -4 -4 -5 -5 -5 -5 -5 -5 -6 -6 -6 -6 -6 -6 -6 -7 -7 -7 -7 -7 -7 -7 -7 -7 -7 -7
2 2 2 1 1 0 -0 -1 -1 -1 -2 -2 -2 -2 -3 -3 -4 -4 -4 -5 -5 -5 -6 -6 -6 -6 -6 -6 -6 -6 -7 -7 -7 -7 -8 -8 -8 -8 -8 -8 -8 -8 -8
2 2 1 1 0 -0 -0 -1 -1 -2 -2 -2 -3 -3 -3 -4 -4 -4 -5 -5 -5 -6 -6 -6 -6 -6 -7 -7 -7 -7 -7 -7 -8 -8 -8 -8 -8 -8 -8 -8 -8 -8 -8
2 1 1 1 0 -0 -1 -1 -2 -2 -2 -3 -3 -3 -4 -4 -4 -4 -5 -5 -6 -6 -6 -6 -7 -7 -7 -7 -7 -8 -8 -8 -8 -8 -8 -9 -9 -9 -9 -9 -9 -9 -9
1 1 1 0 -0 -1 -1 -2 -2 -2 -3 -3 -3 -4 -4 -4 -5 -5 -5 -6 -6 -6 -6 -7 -7 -7 -7 -7 -8 -8 -8 -8 -9 -9 -9 -9 -9 -9 -9 -9 -9 -9 -9
1 0 0 -0 -1 -1 -2 -2 -2 -3 -3 -3 -4 -4 -4 -5 -5 -5 -6 -6 -6 -6 -6 -7 -7 -7 -8 -8 -8 -8 -8 -9 -9 -9 -9 -9 -9 -9 -9 -9 -9 -9 -9
0 -0 -1 -1 -1 -2 -2 -3 -3 -3 -3 -4 -4 -4 -5 -5 -5 -6 -6 -6 -6 -7 -7 -7 -7 -8 -8 -8 -8 -8 -9 -9 -9 -9 -9 -9 -9 -9 -9 -9 -9 -9 -9
-0 -1 -1 -1 -2 -2 -2 -3 -3 -4 -4 -4 -4 -5 -5 -5 -6 -6 -6 -6 -6 -7 -7 -7 -8 -8 -8 -8 -9 -9 -9 -9 -9 -9 -9 -9 -9 -9 -9 -9 -9 -10 -10
-1 -1 -1 -2 -2 -2 -3 -3 -3 -4 -4 -5 -5 -5 -5 -6 -6 -6 -6 -6 -7 -7 -7 -8 -8 -8 -8 -8 -9 -9 -9 -9 -9 -9 -9 -9 -9 -9 -9 -9 -9 -10 -10
-1 -1 -2 -2 -2 -3 -3 -3 -4 -4 -4 -5 -5 -5 -6 -6 -6 -6 -7 -7 -7 -7 -7 -8 -8 -8 -8 -8 -9 -9 -9 -9 -9 -9 -9 -9 -9 -9 -9 -9 -9 -10 -10
-1 -2 -2 -2 -2 -3 -3 -4 -4 -4 -5 -5 -5 -6 -6 -6 -6 -6 -7 -7 -7 -7 -8 -8 -8 -8 -8 -9 -9 -9 -9 -9 -9 -9 -9 -9 -9 -9 -9 -9 -10 -10 -10
-2 -2 -2 -2 -3 -3 -4 -4 -4 -5 -5 -5 -5 -6 -6 -6 -6 -7 -7 -7 -7 -7 -8 -8 -8 -8 -8 -9 -9 -9 -9 -9 -9 -9 -9 -9 -9 -9 -9 -10 -10 -10 -9
Wind_Speed
4 3 3 3 3 3 3 3 3 4 4 5 5 5 5 5 5 5 4 5 4 4 4 4 4 5 4 4 4 4 4 4 6 5 4 5 6 6 6 7 8 8 7
4 4 3 3 2 2 2 3 3 3 3 4 4 4 4 5 5 5 5 5 4 4 5 4 5 4 5 4 4 4 4 4 5 6 5 5 6 6 7 8 7 7 8
4 4 4 3 3 3 2 2 2 2 3 3 3 4 4 4 5 5 5 5 5 5 5 5 5 5 5 5 5 4 4 4 4 5 6 5 5 5 7 7 7 7 8
5 5 5 4 3 3 2 2 1 2 2 2 2 3 3 3 4 4 4 4 4 5 5 5 5 6 6 5 5 5 5 5 5 5 5 5 5 5 6 7 7 7 7
6 6 5 4 4 3 2 2 1 1 1 1 2 2 3 3 3 4 4 4 4 4 4 5 5 6 7 6 5 5 5 5 5 5 5 5 5 5 6 6 8 9 8
7 6 5 5 4 4 3 2 2 1 1 1 1 2 2 3 5 5 4 3 3 4 4 5 5 5 6 6 6 7 7 6 5 5 5 6 7 7 7 7 8 8 7
7 6 6 6 5 4 3 3 3 2 1 1 1 1 2 3 5 5 4 3 3 3 4 4 4 5 6 5 5 5 6 6 6 6 6 7 8 8 9 9 9 9 9
7 7 6 6 6 5 5 4 3 3 2 2 1 1 2 2 4 4 3 3 3 3 4 5 5 5 5 6 5 5 5 6 6 5 5 7 8 9 9 9 10 10 10
8 7 7 7 7 6 6 5 4 3 3 2 2 2 2 2 3 4 4 3 2 3 4 5 5 5 7 8 6 6 6 6 5 6 7 8 10 11 10 7 7 7 8
8 7 7 7 7 7 7 5 4 4 3 2 2 2 2 2 3 4 4 2 3 3 3 4 5 7 8 9 6 6 6 7 7 7 7 7 7 7 8 6 6 7 7
6 6 7 7 7 7 6 5 5 4 4 3 3 3 3 2 2 3 4 3 3 3 3 3 4 8 9 9 8 6 7 8 7 7 7 7 6 6 6 6 6 6 7
5 6 7 7 6 6 6 6 5 5 5 4 4 3 2 2 2 3 3 3 4 4 3 4 4 8 9 8 6 6 8 8 5 5 6 6 6 7 7 7 8 8 8
6 7 6 6 6 6 7 6 6 5 4 4 4 3 3 2 2 3 4 4 4 4 3 5 7 8 7 5 5 7 6 5 5 5 6 6 7 8 8 8 8 8 9
7 6 6 6 6 6 6 6 5 5 5 5 4 4 3 3 2 2 2 3 4 4 4 4 5 5 4 5 5 4 4 4 5 5 6 7 7 7 7 8 8 8 8
7 6 6 6 6 6 6 6 6 6 5 5 4 4 3 3 3 4 3 3 3 3 4 4 3 3 3 3 3 4 4 4 5 5 6 7 7 7 8 8 7 8 8
7 6 6 6 6 6 5 5 6 6 7 8 6 5 4 4 4 5 5 5 5 5 4 4 4 4 4 4 4 4 4 5 5 6 6 7 7 8 8 8 8 8 8
7 7 6 6 6 6 6 5 5 5 7 8 8 8 6 5 5 5 5 5 5 4 4 3 4 4 4 4 4 5 5 5 6 6 6 7 7 8 8 8 8 8 9
7 7 7 6 6 6 6 6 5 5 5 5 6 8 7 6 5 5 5 4 4 4 3 4 4 4 4 4 5 5 5 6 6 6 7 7 7 8 8 8 8 9 10
7 6 6 6 6 6 5 5 5 5 5 4 4 5 7 6 6 5 5 4 4 4 4 4 4 4 4 5 5 5 6 6 7 7 7 8 7 8 8 9 9 12 11
6 8 7 6 5 5 5 6 5 5 5 5 5 4 4 5 5 5 5 4 4 4 4 4 4 5 5 5 5 5 6 6 7 7 7 7 7 8 9 10 10 10 10
5 7 9 6 6 6 6 6 6 6 6 5 5 5 6 5 5 5 5 5 5 5 4 5 5 5 5 5 5 6 7 7 7 7 7 8 8 8 9 9 10 10 10
6 6 6 6 6 6 6 6 6 6 6 6 5 5 8 6 5 5 5 5 5 4 4 5 5 5 5 5 5 6 7 7 7 7 8 8 8 9 9 9 10 10 10
6 6 6 6 5 7 6 6 6 6 6 6 5 5 5 6 5 5 5 5 4 4 4 5 5 5 5 6 6 6 7 8 8 8 8 9 9 9 9 10 11 12 11
7 7 7 6 6 6 6 6 6 6 6 6 5 5 5 5 5 5 5 4 4 4 4 5 5 6 7 7 7 8 9 10 10 9 11 10 10 10 9 10 11 12 11
7 7 7 6 6 6 6 6 6 6 6 6 5 5 5 5 5 5 4 4 4 4 5 5 5 6 8 9 9 10 12 14 13 11 10 9 10 10 10 11 10 11 11
7 7 7 6 6 6 6 6 6 6 6 6 5 5 5 5 5 5 4 4 4 4 5 5 6 7 9 9 10 12 13 14 14 14 11 8 9 9 9 9 12 11 11
Wind_Direction
254 259 265 277 286 287 292 301 307 311 316 321 328 333 339 342 342 340 339 335 335 337 334 331 330 325 319 322 321 318 310 294 277 287 298 311 315 317 318 316 309 306 303
242 249 255 262 269 274 281 295 299 306 318 324 327 334 342 345 345 345 345 344 342 341 340 339 334 333 333 330 326 321 312 307 293 290 298 307 310 319 316 312 314 312 307
230 235 242 246 250 260 271 278 291 302 314 324 331 337 343 348 349 350 347 349 352 350 348 349 345 343 347 345 336 325 320 316 307 293 294 304 305 319 316 313 315 314 310
223 229 235 238 240 245 256 263 272 289 305 326 337 343 345 348 351 353 351 354 358 3 2 359 357 355 351 344 339 334 327 319 311 300 297 304 308 316 315 314 314 315 310
219 225 230 231 230 231 233 233 240 265 297 323 336 345 352 353 356 351 347 353 1 4 4 3 6 4 358 353 346 337 333 324 319 309 305 308 311 319 318 318 310 313 306
218 223 223 220 218 219 222 221 216 224 276 319 337 350 2 7 4 3 353 353 358 358 355 352 352 352 355 358 3 360 350 334 322 313 309 310 314 317 317 313 311 310 306
218 219 215 214 214 213 211 215 219 221 223 238 284 332 350 5 1 6 8 349 351 349 343 339 339 342 341 339 346 349 352 352 338 314 308 309 310 313 311 308 305 301 294
216 217 213 211 213 208 206 213 219 221 224 234 257 297 317 348 357 358 350 338 348 351 347 343 338 339 347 337 330 333 335 339 337 327 315 312 312 312 306 298 297 296 292
219 218 212 209 209 206 206 208 208 211 218 224 237 262 283 314 349 348 333 330 334 343 346 346 341 339 346 338 332 326 324 326 333 330 322 317 317 318 315 306 303 302 297
223 219 211 207 208 209 207 203 200 206 215 216 226 244 264 292 337 338 325 318 322 329 335 340 352 350 346 343 337 331 328 329 329 326 324 323 323 327 326 313 303 298 298
221 211 206 205 208 208 203 199 196 198 203 210 222 233 249 277 306 327 326 314 315 317 322 328 341 345 343 343 340 336 332 327 324 323 322 325 327 330 331 325 314 297 290
210 208 208 206 202 198 197 195 196 197 202 209 218 230 237 253 278 297 309 310 311 302 307 316 327 334 336 340 342 342 336 331 326 324 325 327 329 328 324 319 311 302 288
207 209 208 202 200 196 198 196 194 198 207 212 217 227 234 243 254 272 285 297 303 297 300 312 318 326 329 334 347 342 336 333 330 325 324 322 320 317 315 312 310 304 297
210 210 204 200 199 197 199 200 201 202 207 212 217 225 231 239 251 259 267 275 281 286 293 301 307 315 317 321 327 333 335 333 327 319 317 316 316 316 317 318 315 313 306
210 207 202 201 199 197 200 204 208 212 213 213 217 220 225 237 245 261 271 273 279 287 296 293 298 306 312 318 321 324 326 323 324 322 318 317 318 318 317 319 313 310 303
207 206 202 198 196 196 195 200 213 220 220 224 228 228 234 244 257 255 261 269 275 280 282 283 288 295 301 308 313 316 319 319 320 317 314 313 314 314 314 315 313 308 304
210 205 200 197 196 195 195 198 202 207 218 224 225 227 232 238 247 251 256 262 263 263 263 274 281 288 294 299 302 304 306 309 309 306 306 307 308 308 309 310 312 311 308
210 205 200 199 195 195 196 201 203 201 202 211 217 224 229 235 238 242 248 251 248 247 260 270 276 282 286 290 294 297 299 301 301 301 302 302 303 304 305 306 308 308 308
205 202 199 196 193 192 193 197 201 205 210 212 210 215 222 228 229 231 234 238 248 255 261 268 273 277 281 284 288 291 293 294 296 298 297 298 300 300 300 301 302 304 305
204 197 192 191 189 189 192 196 199 203 208 212 216 216 208 213 221 224 227 236 246 255 260 265 269 272 276 280 284 287 289 290 293 293 295 297 298 296 296 298 300 303 304
197 194 190 192 194 194 197 201 203 205 209 214 218 214 209 218 226 228 230 236 243 251 258 263 267 270 271 276 280 282 285 288 290 292 293 295 296 296 296 296 297 299 301
192 192 193 197 196 197 200 201 204 208 212 216 218 215 218 224 227 230 232 237 243 249 254 260 265 267 268 271 275 279 282 284 287 290 292 293 293 293 295 296 298 301 302
192 190 192 196 197 199 201 202 203 207 211 214 214 212 215 221 224 228 234 240 244 249 254 256 261 265 269 271 270 271 274 279 284 287 289 289 291 293 295 297 299 302 305
194 194 194 194 195 198 201 204 205 208 211 213 214 215 218 222 226 229 235 240 244 248 252 255 259 265 272 277 276 274 273 279 284 281 279 280 286 290 293 296 299 302 304
194 196 196 196 196 199 201 203 205 207 208 211 213 215 218 222 226 230 234 238 243 249 254 261 261 266 272 277 280 282 286 290 289 287 283 281 284 289 295 298 300 303 305
197 197 198 198 199 200 201 203 205 207 209 209 211 214 216 220 225 229 232 235 242 249 255 260 263 272 278 281 283 289 294 297 298 297 293 289 291 293 298 299 303 304 306
Height
1495 1494 1492 1491 1489 1488 1486 1485 1483 1481 1480 1478 1477 1476 1474 1473 1471 1470 1468 1466 1465 1463 1462 1461 1459 1458 1457 1455 1454 1453 1452 1451 1449 1447 1446 1445 1443 1442 1440 1439 1438 1436 1434
1492 1491 1489 1488 1487 1485 1484 1482 1481 1479 1477 1476 1475 1473 1472 1470 1469 1467 1465 1464 1462 1460 1459 1458 1456 1455 1454 1452 1451 1449 1448 1447 1446 1443 1442 1441 1439 1437 1435 1434 1432 1431 1429
1488 1487 1486 1485 1484 1483 1481 1480 1478 1477 1475 1474 1472 1471 1469 1468 1466 1465 1463 1461 1459 1458 1456 1455 1453 1452 1450 1449 1448 1446 1445 1443 1442 1441 1438 1437 1435 1433 1431 1429 1427 1425 1424
1485 1484 1483 1482 1481 1480 1479 1477 1476 1474 1473 1472 1470 1469 1467 1466 1464 1462 1461 1459 1457 1456 1454 1452 1451 1449 1447 1446 1444 1443 1442 1440 1439 1437 1435 1433 1431 1429 1427 1425 1422 1420 1418
1481 1481 1480 1479 1478 1477 1476 1475 1473 1472 1471 1470 1468 1467 1465 1463 1462 1460 1458 1457 1455 1454 1452 1450 1449 1447 1445 1443 1442 1440 1439 1437 1435 1433 1431 1429 1427 1425 1423 1420 1418 1415 1413
1478 1477 1476 1475 1475 1474 1473 1472 1471 1470 1469 1467 1466 1465 1463 1461 1460 1458 1457 1455 1453 1452 1450 1448 1447 1445 1443 1441 1439 1437 1436 1434 1432 1430 1428 1426 1424 1422 1419 1417 1414 1411 1408
1474 1473 1473 1472 1471 1471 1470 1469 1468 1467 1466 1465 1464 1462 1461 1459 1458 1456 1454 1453 1451 1449 1448 1446 1444 1442 1440 1438 1436 1434 1433 1431 1430 1428 1425 1423 1420 1418 1416 1413 1411 1408 1405
1469 1469 1469 1468 1468 1467 1466 1466 1465 1464 1463 1462 1461 1460 1459 1457 1455 1454 1452 1451 1449 1447 1445 1444 1442 1440 1438 1436 1434 1432 1430 1428 1426 1424 1422 1419 1417 1414 1412 1410 1406 1403 1400
1465 1465 1464 1464 1464 1463 1463 1462 1462 1461 1460 1459 1458 1457 1456 1455 1453 1451 1450 1448 1447 1445 1443 1441 1439 1437 1435 1433 1431 1429 1427 1425 1423 1420 1418 1415 1413 1410 1408 1405 1402 1399 1395
1460 1460 1460 1460 1459 1459 1459 1459 1458 1458 1457 1456 1455 1454 1453 1452 1450 1449 1447 1446 1444 1442 1440 1439 1436 1435 1433 1431 1429 1426 1424 1421 1419 1416 1414 1411 1409 1406 1403 1401 1398 1395 1391
1456 1455 1455 1455 1455 1455 1455 1455 1454 1454 1453 1453 1452 1451 1450 1449 1448 1446 1445 1443 1442 1440 1438 1436 1434 1432 1430 1428 1426 1424 1421 1418 1416 1413 1410 1408 1405 1402 1399 1396 1394 1391 1388
1450 1450 1450 1450 1450 1450 1450 1450 1450 1450 1450 1449 1448 1448 1447 1446 1445 1443 1442 1441 1439 1438 1436 1434 1432 1430 1427 1425 1423 1421 1418 1416 1413 1410 1407 1404 1401 1398 1395 1392 1390 1387 1384
1445 1445 1446 1446 1446 1446 1446 1446 1446 1446 1446 1445 1445 1444 1443 1443 1441 1440 1439 1438 1436 1435 1433 1431 1429 1427 1425 1423 1420 1418 1416 1413 1410 1408 1404 1401 1398 1395 1392 1388 1385 1382 1379
1440 1440 1440 1441 1441 1441 1441 1441 1441 1441 1441 1441 1441 1440 1440 1439 1438 1437 1436 1435 1433 1432 1430 1428 1427 1425 1422 1420 1418 1416 1413 1411 1408 1405 1402 1399 1395 1392 1389 1385 1381 1378 1374
1435 1435 1435 1436 1436 1436 1437 1437 1437 1437 1438 1438 1437 1437 1436 1435 1435 1434 1433 1431 1430 1429 1427 1426 1424 1422 1420 1418 1415 1413 1411 1408 1405 1402 1399 1396 1392 1389 1385 1382 1378 1374 1371
1430 1430 1430 1431 1431 1431 1432 1432 1432 1433 1433 1433 1433 1433 1432 1432 1431 1430 1429 1428 1427 1426 1425 1423 1421 1419 1417 1415 1413 1410 1408 1405 1403 1400 1397 1393 1390 1386 1382 1379 1375 1371 1367
1425 1425 1426 1426 1426 1427 1427 1427 1428 1428 1429 1428 1428 1428 1428 1428 1427 1426 1426 1425 1424 1423 1421 1420 1418 1416 1414 1412 1410 1407 1405 1402 1400 1397 1394 1390 1387 1383 1379 1376 1372 1368 1364
1420 1421 1421 1421 1422 1422 1423 1423 1424 1424 1424 1424 1424 1424 1424 1424 1423 1423 1422 1421 1420 1419 1418 1416 1415 1413 1411 1409 1407 1404 1402 1399 1397 1394 1391 1387 1384 1380 1376 1373 1369 1365 1360
1415 1416 1416 1417 1417 1418 1419 1419 1419 1420 1420 1420 1420 1420 1420 1420 1419 1419 1418 1418 1416 1415 1414 1413 1411 1410 1408 1406 1403 1401 1399 1396 1393 1391 1387 1384 1381 1377 1373 1369 1365 1361 1357
1410 1411 1411 1412 1412 1413 1414 1414 1415 1415 1416 1416 1416 1416 1416 1416 1415 1415 1414 1413 1412 1411 1410 1409 1408 1406 1404 1402 1400 1398 1395 1393 1390 1387 1384 1381 1377 1374 1370 1366 1362 1358 1354
1405 1406 1407 1407 1408 1408 1409 1410 1411 1411 1411 1412 1412 1412 1412 1411 1411 1410 1410 1409 1408 1407 1406 1405 1404 1402 1400 1398 1396 1394 1392 1389 1386 1384 1381 1377 1374 1370 1367 1363 1359 1355 1351
1400 1401 1402 1403 1404 1404 1405 1406 1406 1407 1407 1407 1407 1408 1407 1407 1407 1406 1406 1405 1404 1404 1403 1401 1400 1398 1397 1395 1392 1390 1388 1385 1383 1380 1377 1374 1371 1367 1364 1360 1356 1352 1348
1396 1397 1397 1398 1399 1400 1401 1401 1402 1402 1402 1403 1403 1403 1403 1403 1402 1402 1402 1401 1400 1399 1398 1397 1396 1394 1393 1391 1389 1387 1384 1382 1379 1376 1373 1370 1367 1364 1360 1357 1353 1349 1345
1392 1392 1393 1394 1395 1396 1396 1397 1397 1398 1398 1398 1399 1399 1399 1398 1398 1398 1397 1397 1396 1395 1394 1393 1392 1390 1389 1387 1385 1383 1380 1378 1375 1373 1370 1367 1364 1361 1357 1354 1350 1346 1342
1387 1388 1389 1389 1390 1391 1392 1392 1393 1393 1394 1394 1394 1394 1394 1394 1394 1394 1393 1393 1392 1391 1390 1389 1388 1386 1384 1383 1381 1379 1376 1374 1372 1369 1366 1364 1361 1358 1354 1351 1347 1343 1339
1383 1384 1384 1385 1386 1387 1387 1388 1388 1389 1389 1389 1390 1390 1390 1390 1390 1389 1389 1388 1388 1387 1386 1385 1383 1382 1380 1379 1377 1375 1373 1370 1368 1366 1363 1361 1358 1355 1351 1348 1344 1341 1337